FLY9 NZWF-NZPP

Flight info

Callsign FLY9
Flight time 1h 2m
Altitude 41000
Route TIMJO Y153 DOPKI Y109 ODOWD Y819 AGSOP
Aircraft C25C/M-SDE2E3FGHRWXY/LB1

Departure

Time 2026-04-22 03:37
Airport Wanaka Airport (NZWF)

Arrival

Time 2026-04-22 04:39
Airport Paraparaumu Airport (NZPP)
Time Latitude Longitude Altitude Speed Heading
2026-04-22 03:30 -44.72297 169.24496 1182 ft 0 kts 38°
2026-04-22 03:34 -44.72250 169.24517 1188 ft 14 kts 39°
2026-04-22 03:34 -44.72136 169.24542 1189 ft 21 kts 320°
2026-04-22 03:35 -44.71971 169.24340 1188 ft 42 kts 319°
2026-04-22 03:35 -44.71819 169.24141 1197 ft 18 kts 271°
2026-04-22 03:35 -44.71854 169.24131 1196 ft 1 kts 66°
2026-04-22 03:35 -44.71833 169.24139 1198 ft 9 kts 326°
2026-04-22 03:36 -44.71823 169.24137 1196 ft 2 kts 118°
2026-04-22 03:36 -44.71826 169.24141 1196 ft 0 kts 140°
2026-04-22 03:36 -44.71849 169.24167 1195 ft 27 kts 140°
2026-04-22 03:36 -44.72299 169.24721 1182 ft 130 kts 139°
2026-04-22 03:37 -44.73128 169.25807 1471 ft 201 kts 134°
2026-04-22 03:37 -44.74106 169.27240 2452 ft 202 kts 135°
2026-04-22 03:37 -44.75355 169.28476 3294 ft 248 kts 154°
2026-04-22 03:37 -44.76699 169.29833 5328 ft 251 kts 140°
2026-04-22 03:38 -44.78092 169.31622 6765 ft 262 kts 137°
2026-04-22 03:38 -44.79464 169.33476 8119 ft 302 kts 138°
2026-04-22 03:38 -44.81133 169.35737 8115 ft 361 kts 136°
2026-04-22 03:38 -44.82593 169.38791 8233 ft 394 kts 112°
2026-04-22 03:39 -44.83082 169.42346 8075 ft 358 kts 94°
2026-04-22 03:39 -44.82486 169.45915 8602 ft 386 kts 70°
2026-04-22 03:39 -44.80995 169.49146 9302 ft 409 kts 46°
2026-04-22 03:39 -44.78598 169.51197 11031 ft 404 kts 23°
2026-04-22 03:40 -44.75919 169.51738 13286 ft 384 kts 360°
2026-04-22 03:40 -44.73353 169.51146 15427 ft 365 kts 346°
2026-04-22 03:40 -44.71035 169.50022 17682 ft 338 kts 340°
2026-04-22 03:40 -44.68805 169.48981 19240 ft 344 kts 346°
2026-04-22 03:41 -44.66448 169.48393 20462 ft 345 kts 355°
2026-04-22 03:41 -44.64010 169.47987 21372 ft 362 kts 353°
2026-04-22 03:41 -44.61492 169.47392 22311 ft 375 kts 350°
2026-04-22 03:41 -44.58907 169.46665 23325 ft 383 kts 356°
2026-04-22 03:42 -44.56326 169.47184 24115 ft 378 kts 26°
2026-04-22 03:42 -44.54093 169.48959 25004 ft 365 kts 47°
2026-04-22 03:42 -44.52541 169.51569 25757 ft 341 kts 68°
2026-04-22 03:42 -44.51538 169.54511 26084 ft 338 kts 77°
2026-04-22 03:43 -44.50647 169.57386 27125 ft 324 kts 71°
2026-04-22 03:43 -44.49715 169.60225 28037 ft 324 kts 75°
2026-04-22 03:43 -44.48777 169.63102 28991 ft 321 kts 75°
2026-04-22 03:43 -44.47873 169.65950 29882 ft 327 kts 75°
2026-04-22 03:44 -44.46881 169.68811 30938 ft 315 kts 78°
2026-04-22 03:44 -44.45997 169.71497 32461 ft 284 kts 77°
2026-04-22 03:44 -44.45089 169.73859 33883 ft 266 kts 76°
2026-04-22 03:44 -44.44211 169.75977 35052 ft 238 kts 74°
2026-04-22 03:45 -44.43504 169.77911 35950 ft 217 kts 79°
2026-04-22 03:45 -44.42790 169.79833 36265 ft 226 kts 78°
2026-04-22 03:45 -44.42040 169.81883 36314 ft 246 kts 77°
2026-04-22 03:45 -44.41202 169.84123 36093 ft 281 kts 70°
2026-04-22 03:46 -44.40174 169.86747 35449 ft 322 kts 74°
2026-04-22 03:46 -44.39075 169.89550 35373 ft 345 kts 75°
2026-04-22 03:46 -44.37917 169.92570 35363 ft 361 kts 73°
2026-04-22 03:46 -44.36993 169.95262 34619 ft 190 kts 97°
2026-04-22 03:47 -44.36319 169.94654 27569 ft 225 kts 258°
2026-04-22 03:47 -44.36555 169.92231 24514 ft 305 kts 223°
2026-04-22 03:47 -44.38197 169.91135 25419 ft 270 kts 184°
2026-04-22 03:47 -44.40259 169.91611 23681 ft 350 kts 155°
2026-04-22 03:48 -44.42442 169.92967 25270 ft 323 kts 152°
2026-04-22 03:48 -44.44076 169.94836 27171 ft 297 kts 135°
2026-04-22 03:48 -44.45246 169.97211 28294 ft 304 kts 119°
2026-04-22 03:48 -44.45859 170.00106 29066 ft 317 kts 107°
2026-04-22 03:49 -44.45979 170.03239 29890 ft 330 kts 95°
2026-04-22 03:49 -44.45581 170.06467 30644 ft 344 kts 83°
2026-04-22 03:49 -44.44656 170.09609 31370 ft 357 kts 72°
2026-04-22 03:49 -44.43232 170.12530 32070 ft 371 kts 60°
2026-04-22 03:50 -44.41355 170.15091 32732 ft 384 kts 49°
2026-04-22 03:50 -44.39154 170.17268 33114 ft 390 kts 43°
2026-04-22 03:50 -44.36887 170.19366 33280 ft 391 kts 44°
2026-04-22 03:50 -44.34723 170.21629 33494 ft 384 kts 51°
2026-04-22 03:51 -44.32864 170.24229 33717 ft 375 kts 59°
2026-04-22 03:51 -44.31715 170.26083 33872 ft 373 kts 60°
2026-04-22 03:51 -44.29517 170.29762 34147 ft 375 kts 59°
2026-04-22 03:51 -44.28316 170.31573 34285 ft 378 kts 57°
2026-04-22 03:52 -44.25864 170.35039 34542 ft 378 kts 56°
2026-04-22 03:52 -44.24660 170.36793 34656 ft 377 kts 57°
2026-04-22 03:52 -44.22881 170.39476 34797 ft 376 kts 57°
2026-04-22 03:52 -44.21100 170.42152 34988 ft 377 kts 57°
2026-04-22 03:53 -44.19299 170.44805 35164 ft 377 kts 56°
2026-04-22 03:53 -44.17493 170.47450 35356 ft 376 kts 56°
2026-04-22 03:53 -44.15696 170.50104 35557 ft 376 kts 56°
2026-04-22 03:53 -44.13905 170.52756 35750 ft 376 kts 56°
2026-04-22 03:54 -44.12110 170.55400 35944 ft 376 kts 55°
2026-04-22 03:54 -44.10316 170.58038 36138 ft 375 kts 55°
2026-04-22 03:54 -44.08520 170.60676 36335 ft 375 kts 54°
2026-04-22 03:54 -44.06727 170.63313 36556 ft 375 kts 54°
2026-04-22 03:55 -44.04935 170.65942 36788 ft 375 kts 54°
2026-04-22 03:55 -44.03144 170.68568 37019 ft 374 kts 53°
2026-04-22 03:55 -44.01354 170.71191 37251 ft 374 kts 53°
2026-04-22 03:55 -43.99565 170.73809 37493 ft 373 kts 53°
2026-04-22 03:56 -43.97777 170.76423 37731 ft 373 kts 53°
2026-04-22 03:56 -43.95991 170.79033 37961 ft 373 kts 52°
2026-04-22 03:56 -43.94203 170.81641 38204 ft 373 kts 52°
2026-04-22 03:56 -43.92417 170.84247 38444 ft 373 kts 52°
2026-04-22 03:57 -43.90629 170.86851 38688 ft 373 kts 51°
2026-04-22 03:57 -43.88842 170.89451 38927 ft 372 kts 51°
2026-04-22 03:57 -43.87055 170.92049 39147 ft 372 kts 51°
2026-04-22 03:57 -43.85266 170.94649 39321 ft 373 kts 51°
2026-04-22 03:58 -43.83475 170.97248 39510 ft 373 kts 51°
2026-04-22 03:58 -43.81679 170.99851 39687 ft 374 kts 50°
2026-04-22 03:58 -43.79881 171.02455 39866 ft 374 kts 50°
2026-04-22 03:58 -43.78080 171.05063 40047 ft 375 kts 50°
2026-04-22 03:59 -43.76276 171.07670 40245 ft 375 kts 50°
2026-04-22 03:59 -43.74471 171.10279 40432 ft 375 kts 50°
2026-04-22 03:59 -43.72689 171.12851 40615 ft 376 kts 50°
2026-04-22 03:59 -43.70880 171.15458 40798 ft 376 kts 50°
2026-04-22 04:00 -43.69068 171.18069 40985 ft 376 kts 49°
2026-04-22 04:00 -43.67231 171.20713 41163 ft 377 kts 49°
2026-04-22 04:00 -43.65439 171.23289 41287 ft 378 kts 49°
2026-04-22 04:00 -43.63599 171.25935 41322 ft 386 kts 49°
2026-04-22 04:01 -43.59824 171.31348 41362 ft 397 kts 49°
2026-04-22 04:01 -43.55943 171.36905 41369 ft 407 kts 49°
2026-04-22 04:02 -43.51966 171.42586 41371 ft 416 kts 49°
2026-04-22 04:02 -43.47912 171.48367 41367 ft 423 kts 48°
2026-04-22 04:03 -43.43767 171.54265 41361 ft 428 kts 48°
2026-04-22 04:03 -43.39603 171.60174 41372 ft 432 kts 48°
2026-04-22 04:04 -43.35398 171.66135 41365 ft 436 kts 48°
2026-04-22 04:04 -43.31154 171.72135 41367 ft 439 kts 48°
2026-04-22 04:05 -43.26880 171.78166 41365 ft 442 kts 47°
2026-04-22 04:05 -43.22579 171.84220 41355 ft 444 kts 47°
2026-04-22 04:06 -43.18260 171.90288 41356 ft 445 kts 47°
2026-04-22 04:06 -43.13925 171.96364 41354 ft 446 kts 47°
2026-04-22 04:07 -43.09575 172.02449 41356 ft 448 kts 47°
2026-04-22 04:07 -43.05208 172.08543 41350 ft 449 kts 47°
2026-04-22 04:08 -43.00829 172.14642 41352 ft 450 kts 47°
2026-04-22 04:08 -42.96469 172.20701 41342 ft 451 kts 47°
2026-04-22 04:09 -42.92041 172.26839 41340 ft 450 kts 47°
2026-04-22 04:09 -42.87676 172.32882 41335 ft 450 kts 47°
2026-04-22 04:10 -42.83244 172.38998 41338 ft 450 kts 47°
2026-04-22 04:10 -42.78845 172.45060 41340 ft 450 kts 47°
2026-04-22 04:11 -42.74444 172.51110 41339 ft 450 kts 47°
2026-04-22 04:11 -42.70042 172.57148 41338 ft 449 kts 47°
2026-04-22 04:12 -42.65670 172.63134 41337 ft 449 kts 47°
2026-04-22 04:12 -42.61271 172.69143 41342 ft 448 kts 47°
2026-04-22 04:13 -42.56870 172.75140 41343 ft 448 kts 47°
2026-04-22 04:13 -42.52473 172.81123 41342 ft 448 kts 46°
2026-04-22 04:14 -42.48074 172.87094 41342 ft 448 kts 46°
2026-04-22 04:14 -42.43666 172.93065 41116 ft 453 kts 46°
2026-04-22 04:15 -42.41404 172.96125 40530 ft 466 kts 46°
2026-04-22 04:15 -42.39101 172.99235 39920 ft 465 kts 46°
2026-04-22 04:15 -42.36832 173.02291 39312 ft 456 kts 47°
2026-04-22 04:15 -42.34606 173.05292 38660 ft 448 kts 46°
2026-04-22 04:16 -42.32425 173.08231 38061 ft 438 kts 47°
2026-04-22 04:16 -42.28194 173.13917 36931 ft 421 kts 47°
2026-04-22 04:16 -42.26137 173.16684 36381 ft 414 kts 47°
2026-04-22 04:17 -42.24106 173.19405 35838 ft 409 kts 47°
2026-04-22 04:17 -42.22103 173.22088 35300 ft 404 kts 47°
2026-04-22 04:17 -42.20120 173.24743 34765 ft 399 kts 46°
2026-04-22 04:17 -42.18157 173.27369 34232 ft 396 kts 46°
2026-04-22 04:18 -42.16213 173.29965 33670 ft 391 kts 46°
2026-04-22 04:18 -42.14296 173.32525 33154 ft 385 kts 47°
2026-04-22 04:18 -42.12401 173.35051 32649 ft 381 kts 47°
2026-04-22 04:18 -42.10525 173.37553 32140 ft 378 kts 47°
2026-04-22 04:19 -42.08664 173.40029 31642 ft 375 kts 47°
2026-04-22 04:19 -42.06818 173.42485 31144 ft 372 kts 47°
2026-04-22 04:19 -42.04984 173.44924 30653 ft 370 kts 47°
2026-04-22 04:19 -42.03154 173.47352 30137 ft 369 kts 47°
2026-04-22 04:20 -42.01337 173.49763 29633 ft 366 kts 47°
2026-04-22 04:20 -41.99533 173.52155 29141 ft 363 kts 47°
2026-04-22 04:20 -41.97745 173.54522 28663 ft 359 kts 48°
2026-04-22 04:20 -41.95969 173.56875 28187 ft 357 kts 47°
2026-04-22 04:21 -41.94205 173.59206 27714 ft 355 kts 47°
2026-04-22 04:21 -41.92451 173.61525 27248 ft 353 kts 47°
2026-04-22 04:21 -41.90704 173.63830 26779 ft 351 kts 48°
2026-04-22 04:21 -41.88965 173.66123 26317 ft 350 kts 48°
2026-04-22 04:22 -41.87231 173.68411 25856 ft 349 kts 48°
2026-04-22 04:22 -41.85500 173.70691 25391 ft 349 kts 47°
2026-04-22 04:22 -41.83769 173.72969 24931 ft 349 kts 48°
2026-04-22 04:22 -41.82038 173.75245 24475 ft 348 kts 48°
2026-04-22 04:23 -41.80308 173.77519 24010 ft 349 kts 48°
2026-04-22 04:23 -41.78575 173.79795 23507 ft 349 kts 47°
2026-04-22 04:23 -41.76845 173.82063 23035 ft 347 kts 47°
2026-04-22 04:23 -41.75150 173.84284 22586 ft 345 kts 47°
2026-04-22 04:24 -41.73437 173.86530 22132 ft 344 kts 47°
2026-04-22 04:24 -41.71731 173.88759 21678 ft 342 kts 47°
2026-04-22 04:24 -41.70029 173.90984 21229 ft 341 kts 46°
2026-04-22 04:24 -41.68334 173.93201 20777 ft 341 kts 46°
2026-04-22 04:25 -41.66640 173.95413 20330 ft 340 kts 46°
2026-04-22 04:25 -41.64948 173.97619 19880 ft 339 kts 46°
2026-04-22 04:25 -41.63258 173.99823 19434 ft 339 kts 46°
2026-04-22 04:25 -41.61569 174.02023 18988 ft 339 kts 46°
2026-04-22 04:26 -41.59880 174.04221 18541 ft 339 kts 46°
2026-04-22 04:26 -41.58194 174.06414 18059 ft 338 kts 46°
2026-04-22 04:26 -41.56519 174.08591 17613 ft 335 kts 47°
2026-04-22 04:26 -41.54855 174.10753 17166 ft 333 kts 46°
2026-04-22 04:27 -41.53199 174.12899 16728 ft 331 kts 46°
2026-04-22 04:27 -41.51553 174.15034 16295 ft 329 kts 47°
2026-04-22 04:27 -41.49918 174.17152 15860 ft 327 kts 48°
2026-04-22 04:27 -41.48294 174.19255 15432 ft 325 kts 48°
2026-04-22 04:28 -41.46673 174.21356 14998 ft 330 kts 48°
2026-04-22 04:28 -41.44975 174.23558 14550 ft 351 kts 47°
2026-04-22 04:28 -41.43179 174.25879 14070 ft 368 kts 47°
2026-04-22 04:28 -41.41308 174.28290 13545 ft 380 kts 47°
2026-04-22 04:29 -41.39388 174.30760 13034 ft 388 kts 48°
2026-04-22 04:29 -41.37435 174.33278 12516 ft 394 kts 48°
2026-04-22 04:29 -41.35454 174.35830 11988 ft 398 kts 48°
2026-04-22 04:29 -41.33499 174.38334 11470 ft 380 kts 49°
2026-04-22 04:30 -41.31640 174.40714 10979 ft 360 kts 50°
2026-04-22 04:30 -41.29890 174.42961 10525 ft 341 kts 51°
2026-04-22 04:30 -41.28204 174.45134 10063 ft 334 kts 51°
2026-04-22 04:30 -41.26547 174.47262 9605 ft 329 kts 51°
2026-04-22 04:31 -41.24910 174.49359 9171 ft 324 kts 51°
2026-04-22 04:31 -41.23295 174.51429 8748 ft 321 kts 51°
2026-04-22 04:31 -41.21689 174.53480 8326 ft 320 kts 52°
2026-04-22 04:31 -41.20092 174.55525 7906 ft 319 kts 51°
2026-04-22 04:32 -41.18518 174.57538 7615 ft 316 kts 51°
2026-04-22 04:32 -41.16932 174.59557 7073 ft 321 kts 51°
2026-04-22 04:32 -41.15308 174.61656 6459 ft 327 kts 52°
2026-04-22 04:32 -41.13823 174.63900 5998 ft 323 kts 56°
2026-04-22 04:33 -41.12287 174.66133 5561 ft 323 kts 54°
2026-04-22 04:33 -41.10801 174.68293 5146 ft 321 kts 55°
2026-04-22 04:33 -41.09313 174.70498 4710 ft 320 kts 56°
2026-04-22 04:33 -41.07835 174.72693 4281 ft 319 kts 56°
2026-04-22 04:34 -41.06407 174.74779 3877 ft 289 kts 56°
2026-04-22 04:34 -41.05119 174.76660 3513 ft 263 kts 57°
2026-04-22 04:34 -41.04114 174.78507 3167 ft 234 kts 72°
2026-04-22 04:34 -41.03335 174.80324 2860 ft 221 kts 71°
2026-04-22 04:35 -41.02579 174.82029 2571 ft 209 kts 71°
2026-04-22 04:35 -41.01852 174.83649 2309 ft 201 kts 71°
2026-04-22 04:35 -41.01155 174.85218 2049 ft 195 kts 71°
2026-04-22 04:35 -41.00474 174.86745 1836 ft 188 kts 71°
2026-04-22 04:36 -40.99835 174.88178 1789 ft 173 kts 72°
2026-04-22 04:36 -40.99262 174.89499 1778 ft 159 kts 74°
2026-04-22 04:36 -40.98735 174.90722 1748 ft 149 kts 75°
2026-04-22 04:36 -40.98221 174.91907 1646 ft 148 kts 76°
2026-04-22 04:37 -40.97714 174.93083 1532 ft 148 kts 74°
2026-04-22 04:37 -40.97200 174.94273 1384 ft 149 kts 72°
2026-04-22 04:37 -40.96849 174.95043 1303 ft 149 kts 69°
2026-04-22 04:37 -40.96037 174.95980 1112 ft 164 kts 37°
2026-04-22 04:38 -40.95045 174.96736 921 ft 162 kts 41°
2026-04-22 04:38 -40.94166 174.97505 827 ft 148 kts 41°
2026-04-22 04:38 -40.93297 174.98108 459 ft 137 kts 31°
2026-04-22 04:38 -40.92450 174.98581 384 ft 126 kts 19°
2026-04-22 04:39 -40.91598 174.98777 162 ft 122 kts
2026-04-22 04:39 -40.90751 174.98791 75 ft 115 kts
2026-04-22 04:39 -40.90077 174.98770 72 ft 64 kts 333°
2026-04-22 04:39 -40.89922 174.98572 72 ft 11 kts 271°
2026-04-22 04:40 -40.89926 174.98561 71 ft 0 kts 213°
2026-04-22 04:40 -40.89926 174.98560 71 ft 0 kts 213°
2026-04-22 04:42 -40.89979 174.98659 71 ft 23 kts 120°
2026-04-22 04:43 -40.90066 174.98782 72 ft 15 kts 148°
2026-04-22 04:43 -40.90095 174.98789 72 ft 0 kts 182°
2026-04-22 04:43 -40.90110 174.98789 71 ft 15 kts 179°
2026-04-22 04:43 -40.90605 174.98774 75 ft 122 kts 182°
2026-04-22 04:44 -40.91701 174.98648 769 ft 153 kts 189°
2026-04-22 04:44 -40.91821 174.99550 2055 ft 214 kts
2026-04-22 04:44 -40.91742 174.98542 896 ft 164 kts 149°
2026-04-22 04:44 -40.91022 174.98888 128 ft 186 kts
2026-04-22 04:45 -40.90034 174.98966 91 ft 114 kts
2026-04-22 04:45 -40.89894 174.98967 78 ft 0 kts 315°
2026-04-22 04:45 -40.89960 174.99051 78 ft 0 kts 315°
2026-04-22 04:45 -40.90112 174.98847 78 ft 0 kts 313°
2026-04-22 04:46 -40.90054 174.97860 1014 ft 175 kts 257°
2026-04-22 04:46 -40.90996 174.97377 1979 ft 135 kts 174°
2026-04-22 04:46 -40.91656 174.97880 3112 ft 177 kts 66°
2026-04-22 04:46 -40.90565 174.98714 336 ft 0 kts 13°
2026-04-22 04:47 -40.90566 174.98714 6623 ft 0 kts 13°
2026-04-22 04:47 -40.88996 174.98463 8575 ft 133 kts 287°
2026-04-22 04:47 -40.89010 174.97422 8111 ft 117 kts 214°
2026-04-22 04:47 -40.89574 174.98066 2325 ft 198 kts 109°
2026-04-22 04:48 -40.88298 174.99052 2016 ft 298 kts 271°
2026-04-22 04:48 -40.89603 174.98719 229 ft 252 kts 168°
2026-04-22 04:48 -40.91093 174.98805 985 ft 15 kts 141°
2026-04-22 04:48 -40.90647 174.98887 2314 ft 73 kts 34°
2026-04-22 04:49 -40.90557 174.98753 80 ft 0 kts 102°
2026-04-22 04:49 -40.90680 174.99474 2230 ft 203 kts 110°
2026-04-22 04:49 -40.90228 174.99687 5360 ft 156 kts 19°
2026-04-22 04:49 -40.88933 175.00052 2639 ft 283 kts 38°
2026-04-22 04:50 -40.88870 175.00678 1918 ft 217 kts 239°
2026-04-22 04:50 -40.89479 174.98939 157 ft 199 kts 192°
2026-04-22 04:50 -40.90082 174.98798 240 ft 76 kts 186°